Regional Weather Roundup
Issued by NWS Newport/Morehead, NC

Current Version | Previous Version | Graphics & Text | Print | Product List | Glossary On
Versions: 1 2 3 4 5 6 7 8 9 10 11 12 13 14 15 16 17 18 19 20 21 22 23 24 25 26 27 28 29 30 31 32 33 34 35 36 37 38 39 40 41 42 43 44 45 46 47 48 49 50
000 ASUS42 KMHX 220113 RWRMHX WEATHER ROUNDUP FOR EASTERN NORTH CAROLINA NATIONAL WEATHER SERVICE NEWPORT/MOREHEAD CITY NC 800 PM EST TUE FEB 21 2017 NOTE: "FAIR" INDICATES FEW OR NO CLOUDS BELOW 12,000 FEET WITH NO SIGNIFICANT WEATHER AND/OR OBSTRUCTIONS TO VISIBILITY NCZ015>017-031-032-045>047-102-103-220200- NORTH COAST CITY SKY/WX TMP DP RH WIND PRES REMARKS EDENTON CLOUDY 51 45 78 E6 30.18F ELIZABETH CITY CLOUDY 48 43 82 E6 30.19F KITTY HAWK NOT AVBL MANTEO MOCLDY 49 47 94 E7 30.17F $$ NCZ045>047-081-094-103-104-220200- CENTRAL COAST CITY SKY/WX TMP DP RH WIND PRES REMARKS FRISCO CLOUDY 58 52 80 E6 30.16F $$ NCZ095-097-098-100-101-220200- SOUTHERN COAST CITY SKY/WX TMP DP RH WIND PRES REMARKS BEAUFORT CLOUDY 54 50 86 NE5 30.15F CEDAR ISLAND NOT AVBL JACKSONVILLE CLOUDY 57 53 86 E8 30.14S PINEY ISLAND MOCLDY N/A N/A N/A NE9 30.15F HAZE WILMINGTON MOCLDY 57 53 86 E6 30.13F $$ NCZ011>013-027>030-043-044-078>080-089-090>093-098-220200- COASTAL PLAIN CITY SKY/WX TMP DP RH WIND PRES REMARKS AHOSKIE N/A 52 45 76 E3 30.18S CLINTON MOCLDY 55 47 73 CALM 30.14S ELIZABETHTOWN CLOUDY 61 52 71 CALM 30.13S GOLDSBORO CLOUDY 58 53 84 E3 30.12F GREENVILLE MOCLDY 55 48 76 E5 30.17S HAVELOCK MOCLDY 53 49 86 NE3 30.17S KENANSVILLE NOT AVBL KINSTON CLOUDY 57 50 77 SE3 30.16S NEW BERN PTCLDY 54 50 86 E5 30.17S RICHLANDS CLOUDY 56 51 84 E8 30.15S ROCKY MOUNT PTCLDY 54 48 80 NE3 30.16R WASHINGTON NOT AVBL WHITEVILLE CLOUDY 61 51 70 E5 30.12S $$ AMZ130-135-150-152-154-156-158-170-250-252-270-ANZ085-086-088-633-658-670-220200- MARINE OBSERVATIONS STATION/POSITION TIME TEMP WIND PRES WAVE SWELL AIR SEA DIR/SP/G HT/PER HT/PER (UTC) (F) (DEG/KT/KT) (MB) (FT/S) (FT/S) CHESAPEAKE LIGHT NOT AVBL 64 E VA BEACH 0050 53 52 80/ 10/ 12 1021.8 4/ 8 3/ 8 DUCK 0048 49 49 60/ 7/ 8 1021.3 2 E DUCK 0030 49 N/A 3/ 6 OREGON INLET 0048 20/ 5/ 6 N/A 13E OREGON INLT NOT AVBL HATTERAS CG 0048 58 58 70/ 4/ 5 1021.0 DIAMOND BUOY 0050 63 75 130/ 10/ 14 1021.5 4/ 9 3/ 9 CAPE LOOKOUT 0000 58 20/ 7/ 10 1020.8 BEAUFORT LAB 0048 54 54 30/ 5/ 7 1020.1 30 SE NEW RVR IN 0008 66 130/ 14/ 17 1020.3 30 SE NEW RVR IN 0043 69 N/A 3/ 7 27 SE WRIGHTSVLE 0008 65 64 110/ 10/ 17 1019.5 5 SE WRIGHTSVLE 0008 58 56 80/ 8/ 14 1020.2 225 S CAPE HAT 2350 65 71 70/ 14/ 17 1020.2 5/ 8 3/ 8 41 SE CHARLESTON 2350 70 69 110/ 14/ 17 1017.9 4/ 6 2/13 $$

USA.gov is the U.S. government's official web portal to all federal, state and local government web resources and services.